| time (UTC) | temp F | wind direction | speed knots | gust knots | rain 1hr in | rain 24hr in | rain mn in | humidity % | barometer mb |
| 20260502190046 | 55 | 77 | 1.7 | 5.2 | 0.00 | 0.59 | 0.59 | 90 | 1013.2 |
| 20260502184545 | 54 | 61 | 1.7 | 7.8 | 0.00 | 0.59 | 0.59 | 92 | 1013.2 |
| 20260502183044 | 54 | 261 | 0.0 | 5.2 | 0.00 | 0.59 | 0.59 | 94 | 1013.3 |
| 20260502181544 | 53 | 59 | 0.0 | 3.5 | 0.01 | 0.59 | 0.59 | 94 | 1013.2 |
| 20260502163042 | 58 | 106 | 0.0 | 4.3 | 0.03 | 0.57 | 0.57 | 95 | 1012.6 |
| 20260502161553 | 58 | 27 | 0.0 | 4.3 | 0.03 | 0.57 | 0.57 | 95 | 1013.0 |
| 20260502151532 | 58 | 78 | 0.0 | 2.6 | 0.03 | 0.57 | 0.55 | 96 | 1012.8 |
| 20260502123012 | 57 | 284 | 0.0 | 0.0 | 0.11 | 0.45 | 0.35 | 95 | 1013.2 |
| 20260502121511 | 58 | 284 | 0.0 | 0.0 | 0.08 | 0.41 | 0.31 | 95 | 1012.9 |
| 20260502114511 | 57 | 276 | 0.0 | 0.0 | 0.05 | 0.37 | 0.27 | 95 | 1011.9 |
| 20260502113009 | 57 | 276 | 0.0 | 0.0 | 0.02 | 0.34 | 0.24 | 95 | 1012.0 |
| 20260502111508 | 57 | 276 | 0.0 | 0.9 | 0.03 | 0.33 | 0.23 | 95 | 1011.9 |
| 20260502110008 | 57 | 233 | 0.0 | 0.9 | 0.03 | 0.33 | 0.23 | 95 | 1011.1 |
| 20260502104514 | 57 | 232 | 0.0 | 0.9 | 0.04 | 0.32 | 0.22 | 95 | 1010.7 |
| 20260502103004 | 57 | 232 | 0.0 | 0.0 | 0.06 | 0.32 | 0.22 | 94 | 1011.1 |
| 20260502101502 | 58 | 232 | 0.0 | 0.0 | 0.05 | 0.30 | 0.20 | 94 | 1011.4 |
| 20260502090103 | 58 | 232 | 0.0 | 0.0 | 0.09 | 0.23 | 0.13 | 94 | 1012.4 |
| 20260502070106 | 58 | 233 | 0.0 | 0.0 | 0.00 | 0.10 | 0.00 | 92 | 1012.4 |
| 20260502064552 | 58 | 233 | 0.0 | 0.0 | 0.00 | 0.10 | 0.00 | 92 | 1012.5 |
| 20260502063051 | 58 | 232 | 0.0 | 0.0 | 0.00 | 0.10 | 0.00 | 92 | 1012.5 |
| 20260502061548 | 58 | 232 | 0.0 | 0.0 | 0.00 | 0.10 | 0.00 | 92 | 1012.3 |
| 20260502060051 | 57 | 232 | 0.0 | 0.0 | 0.00 | 0.10 | 0.00 | 92 | 1012.6 |
| 20260502054544 | 57 | 232 | 0.0 | 0.0 | 0.00 | 0.10 | 0.00 | 92 | 1012.8 |
| 20260502053043 | 58 | 232 | 0.0 | 0.0 | 0.00 | 0.10 | 0.00 | 92 | 1012.9 |
| 20260502051556 | 57 | 233 | 0.0 | 0.0 | 0.00 | 0.10 | 0.00 | 91 | 1013.2 |
| 20260502050045 | 58 | 233 | 0.0 | 0.0 | 0.00 | 0.10 | 0.00 | 92 | 1013.0 |
| 20260502044544 | 58 | 232 | 0.0 | 0.0 | 0.00 | 0.10 | 0.00 | 91 | 1012.9 |
| 20260502043044 | 58 | 232 | 0.0 | 0.0 | 0.00 | 0.10 | 0.00 | 91 | 1012.9 |
| 20260502041537 | 58 | 233 | 0.0 | 0.0 | 0.00 | 0.10 | 0.00 | 91 | 1013.0 |
| 20260502040035 | 58 | 232 | 0.0 | 0.0 | 0.00 | 0.10 | 0.00 | 91 | 1013.2 |
| 20260502034535 | 58 | 233 | 0.0 | 0.0 | 0.00 | 0.10 | 0.10 | 90 | 1013.3 |
| 20260502033033 | 58 | 233 | 0.0 | 0.0 | 0.00 | 0.10 | 0.10 | 90 | 1013.4 |
| 20260502031533 | 58 | 232 | 0.0 | 0.0 | 0.00 | 0.10 | 0.10 | 89 | 1013.2 |
| 20260502030033 | 58 | 232 | 0.0 | 0.0 | 0.00 | 0.10 | 0.10 | 89 | 1013.4 |
| 20260502024533 | 58 | 233 | 0.0 | 0.0 | 0.00 | 0.10 | 0.10 | 89 | 1013.4 |
| 20260502023032 | 59 | 233 | 0.0 | 0.0 | 0.00 | 0.10 | 0.10 | 88 | 1013.3 |
| 20260502021531 | 59 | 232 | 0.0 | 0.0 | 0.00 | 0.10 | 0.10 | 88 | 1013.3 |
| 20260502020031 | 59 | 232 | 0.0 | 0.0 | 0.00 | 0.10 | 0.10 | 88 | 1013.3 |
| 20260502014532 | 60 | 233 | 0.0 | 0.0 | 0.00 | 0.10 | 0.10 | 87 | 1013.1 |
| 20260502013030 | 60 | 232 | 0.0 | 0.9 | 0.00 | 0.10 | 0.10 | 87 | 1013.3 |
| 20260502011529 | 60 | 232 | 0.0 | 0.0 | 0.00 | 0.10 | 0.10 | 86 | 1013.0 |
| 20260502010030 | 60 | 232 | 0.0 | 0.0 | 0.00 | 0.10 | 0.10 | 86 | 1012.9 |
| 20260502004529 | 61 | 232 | 0.0 | 0.0 | 0.00 | 0.10 | 0.10 | 85 | 1012.7 |
| 20260502003028 | 61 | 232 | 0.0 | 0.9 | 0.00 | 0.10 | 0.10 | 85 | 1012.6 |
| 20260502001527 | 62 | 239 | 0.0 | 0.0 | 0.00 | 0.10 | 0.10 | 85 | 1012.6 |
| 20260502000027 | 62 | 82 | 0.0 | 0.0 | 0.00 | 0.10 | 0.10 | 85 | 1012.2 |
| 20260501234532 | 62 | 227 | 0.0 | 0.0 | 0.00 | 0.10 | 0.10 | 85 | 1012.2 |
| 20260501233025 | 62 | 227 | 0.0 | 0.0 | 0.00 | 0.10 | 0.10 | 83 | 1012.1 |
| 20260501231525 | 63 | 227 | 0.0 | 0.0 | 0.00 | 0.10 | 0.10 | 80 | 1011.9 |
| 20260501230024 | 64 | 227 | 0.0 | 0.9 | 0.00 | 0.10 | 0.10 | 79 | 1012.4 |
| 20260501224524 | 64 | 227 | 0.0 | 0.9 | 0.00 | 0.10 | 0.10 | 76 | 1012.5 |
| 20260501223023 | 65 | 227 | 0.0 | 1.7 | 0.00 | 0.10 | 0.10 | 71 | 1012.5 |
| 20260501221522 | 65 | 227 | 0.0 | 1.7 | 0.00 | 0.10 | 0.10 | 70 | 1012.7 |
| 20260501220022 | 66 | 227 | 0.9 | 2.6 | 0.00 | 0.10 | 0.10 | 68 | 1012.8 |
| 20260501214536 | 65 | 227 | 0.9 | 5.2 | 0.00 | 0.10 | 0.10 | 68 | 1012.7 |
| 20260501213021 | 65 | 213 | 1.7 | 4.3 | 0.00 | 0.10 | 0.10 | 68 | 1012.7 |
| 20260501211521 | 66 | 51 | 0.9 | 3.5 | 0.00 | 0.10 | 0.10 | 70 | 1012.7 |
| 20260501210022 | 66 | 223 | 0.0 | 4.3 | 0.00 | 0.10 | 0.10 | 68 | 1012.7 |
| 20260501204519 | 66 | 196 | 1.7 | 5.2 | 0.00 | 0.10 | 0.10 | 66 | 1012.7 |
| 20260501203018 | 68 | 181 | 1.7 | 8.7 | 0.00 | 0.10 | 0.10 | 64 | 1012.8 |
| 20260501201517 | 68 | 355 | 1.7 | 4.3 | 0.00 | 0.10 | 0.10 | 65 | 1012.8 |
| 20260501200016 | 66 | 245 | 0.0 | 3.5 | 0.00 | 0.10 | 0.10 | 67 | 1013.0 |
| 20260501194517 | 67 | 13 | 0.9 | 2.6 | 0.00 | 0.10 | 0.10 | 66 | 1013.3 |
| 20260501193014 | 67 | 51 | 0.9 | 2.6 | 0.00 | 0.10 | 0.10 | 65 | 1013.4 |
| 20260501191513 | 64 | 76 | 0.0 | 3.5 | 0.00 | 0.10 | 0.10 | 68 | 1013.9 |